Weather History for Kalaeloa, HI

Change the Weather History Date:

Monday, June 3, 2013

  Actual Average (PHNL) Record (PHNL)
Temperature  
Mean Temperature 77 °F 79 °F  
Max Temperature 82 °F 86 °F 90 °F (1989)
Min Temperature 72 °F 73 °F 66 °F (1982)
Degree Days  
Heating Degree Days 0 0  
Month to date heating degree days 0  
Since 1 June heating degree days 0  
Since 1 July heating degree days 0  
Cooling Degree Days 12 14  
Month to date cooling degree days 42  
Year to date cooling degree days 1544  
Since 1 June cooling degree days 42  
Growing Degree Days 27 (Base 50)    
Moisture  
Dew Point 63 °F    
Average Humidity 63    
Maximum Humidity 73    
Minimum Humidity 49    
Precipitation  
Precipitation 0.00 in 0.01 in 0.92 in (2011)
Month to date precipitation 0.03  
Year to date precipitation 7.60  
Snow  
Snow 0.00 in - - ()
Month to date snowfall  
Since 1 June snowfall  
Since 1 July snowfall  
Snow Depth -    
Sea Level Pressure  
Sea Level Pressure 30.10 in    
Wind  
Wind Speed 7 mph (ENE)    
Max Wind Speed 10 mph    
Max Gust Speed 22 mph    
Visibility 10 miles    
Events      
T = Trace of Precipitation, MM = Missing Value Source: NWS Daily Summary

Daily Weather History Graph

Daily Weather History Graph

Search for Another Location

Airport:

Trip Planner

Search our weather history database for the weather conditions in past years. The results will help you decide how hot, cold, wet, or windy it might be!

Date:

Astronomy

Jun. 03, 2013 Rise Set
Actual Time 5:49 AM HST 7:11 PM HST
Civil Twilight 5:24 AM HST 7:36 PM HST
Nautical Twilight 4:55 AM HST 8:05 PM HST
Astronomical Twilight 4:25 AM HST 8:35 PM HST
Moon 2:24 AM HST (6/3) 3:18 PM HST (6/3)
Length of Visible Light 14h 11m
Length of Day
13h 22m
Waning Crescent, 20% of the Moon is Illuminated
Jun 3
Waning Crescent
Jun 8
New
Jun 16
First Quarter
Jun 23
Full
Jun 29
Last Quarter

Hourly Weather History & Observations

Time (HST) Temp. Heat Index Dew Point Humidity Pressure Visibility Wind Dir Wind Speed Gust Speed Precip Events Conditions
12:53 AM 73.0 °F - 62.1 °F 68% 30.11 in 10.0 mi East 9.2 mph - N/A   Clear
1:13 AM 73.4 °F - 62.6 °F 69% 30.08 in 10.0 mi Variable 4.6 mph - N/A   Partly Cloudy
1:53 AM 73.0 °F - 62.1 °F 68% 30.09 in 10.0 mi Variable 3.5 mph - N/A   Clear
2:53 AM 73.0 °F - 62.1 °F 68% 30.09 in 10.0 mi ENE 6.9 mph - N/A   Clear
3:53 AM 72.0 °F - 61.0 °F 68% 30.08 in 10.0 mi ENE 6.9 mph - N/A   Clear
4:53 AM 72.0 °F - 63.0 °F 73% 30.09 in 10.0 mi East 4.6 mph - N/A   Clear
5:53 AM 73.0 °F - 64.0 °F 73% 30.09 in 10.0 mi Variable 6.9 mph - N/A   Clear
6:53 AM 75.0 °F - 64.0 °F 69% 30.10 in 10.0 mi ENE 6.9 mph - N/A   Clear
7:53 AM 77.0 °F - 64.9 °F 66% 30.12 in 10.0 mi Variable 6.9 mph 18.4 mph N/A   Clear
8:53 AM 78.1 °F - 64.9 °F 64% 30.14 in 10.0 mi East 10.4 mph 21.9 mph N/A   Scattered Clouds
9:53 AM 81.0 °F 82.5 °F 64.0 °F 56% 30.14 in 10.0 mi ENE 9.2 mph 20.7 mph N/A   Mostly Cloudy
10:53 AM 81.0 °F 82.2 °F 63.0 °F 54% 30.14 in 10.0 mi ENE 10.4 mph 17.3 mph N/A   Mostly Cloudy
11:53 AM 82.0 °F 83.4 °F 64.0 °F 54% 30.13 in 10.0 mi ENE 8.1 mph 19.6 mph N/A   Scattered Clouds
12:53 PM 82.9 °F 83.7 °F 62.1 °F 49% 30.10 in 10.0 mi East 10.4 mph 19.6 mph N/A   Scattered Clouds
1:53 PM 82.9 °F 83.7 °F 62.1 °F 49% 30.09 in 10.0 mi ENE 8.1 mph 20.7 mph N/A   Scattered Clouds
2:53 PM 81.0 °F 81.9 °F 62.1 °F 52% 30.07 in 10.0 mi ENE 8.1 mph 18.4 mph N/A   Scattered Clouds
3:53 PM 81.0 °F 82.5 °F 64.0 °F 56% 30.06 in 10.0 mi NE 10.4 mph 19.6 mph N/A   Mostly Cloudy
4:39 PM 80.6 °F 81.8 °F 62.6 °F 54% 30.04 in 10.0 mi NE 8.1 mph 17.3 mph N/A   Partly Cloudy
4:53 PM 80.1 °F 81.5 °F 63.0 °F 56% 30.06 in 10.0 mi Variable 6.9 mph 19.6 mph N/A   Mostly Cloudy
5:53 PM 78.1 °F - 64.0 °F 62% 30.07 in 10.0 mi Variable 6.9 mph - N/A   Partly Cloudy
6:53 PM 75.9 °F - 63.0 °F 64% 30.08 in 10.0 mi ENE 8.1 mph 17.3 mph N/A   Mostly Cloudy
7:53 PM 73.9 °F - 63.0 °F 68% 30.10 in 10.0 mi Variable 4.6 mph - N/A   Partly Cloudy
8:53 PM 73.9 °F - 63.0 °F 68% 30.10 in 10.0 mi Variable 6.9 mph - N/A   Mostly Cloudy
9:53 PM 73.9 °F - 63.0 °F 68% 30.10 in 10.0 mi ENE 6.9 mph - N/A   Scattered Clouds
10:53 PM 73.9 °F - 63.0 °F 68% 30.11 in 10.0 mi East 8.1 mph - N/A   Partly Cloudy
11:53 PM 73.0 °F - 64.0 °F 73% 30.09 in 10.0 mi Variable 4.6 mph - N/A   Scattered Clouds